Regional Weather Roundup
Issued by NWS

Home | Current Version | Previous Version | Graphics & Text | Print | Product List | Glossary On
Versions: 1 2 3 4 5 6 7 8 9 10 11 12 13 14 15 16 17 18 19 20 21 22 23 24 25 26 27 28 29 30 31 32 33 34 35 36 37 38 39 40 41 42 43 44 45 46 47 48 49 50
000
ASUS45 KPSR 242010
RWRAZ

ARIZONA REGIONAL HOURLY WEATHER ROUNDUP
NATIONAL WEATHER SERVICE PHOENIX AZ
100 PM MST FRI APR 24 2015

NOTE: FAIR INDICATES FEW OR NO CLOUDS BELOW 12,000 FEET WITH NO
SIGNIFICANT WEATHER AND/OR OBSTRUCTIONS TO VISIBILITY.

AZZ001>003-036-242100-
NORTHWEST ARIZONA

CITY           SKY/WX    TMP DP  RH WIND       PRES   REMARKS
BULLHEAD CITY  PTSUNNY   77  41  27 S24       29.79F
KINGMAN        MOSUNNY   69  38  32 SW21G35   29.89
$$

AZZ004>008-015-016-018-242100-
NORTH CENTRAL ARIZONA

CITY           SKY/WX    TMP DP  RH WIND       PRES   REMARKS
GRAND CANYON   LGT RAIN  44  37  76 NW10G16   29.95S
WILLIAMS       LGT RAIN  48  37  66 SW15      30.04F
PRESCOTT       PTSUNNY   58  35  42 SW21G30   29.96F
FLAGSTAFF      LGT RAIN  39  36  89 W16G24    30.00S FOG     WCI  30
PAYSON         CLOUDY    50  41  71 SW7       30.03S
PAGE           PTSUNNY   67  28  23 S8        29.80F
$$

AZZ009>014-017-242100-
NORTHEAST ARIZONA

CITY           SKY/WX    TMP DP  RH WIND       PRES   REMARKS
WINSLOW        SUNNY     67  29  24 SW24G32   29.91S
SAINT JOHNS    MOSUNNY   62  24  23 SW22G33   29.92F
WINDOW ROCK    LGT RAIN  50  32  50 SW20G30   29.94S
SHOW LOW       LGT RAIN  52  28  40 SW16G29   29.99S
$$

AZZ023-242100-
GREATER PHOENIX AREA

CITY           SKY/WX    TMP DP  RH WIND       PRES   REMARKS
PHOENIX        LGT RAIN  66  55  67 SW13G26   29.92R
BUCKEYE        MOSUNNY   75  46  35 SW15      29.90F
GLENDALE       PTSUNNY   73  48  40 SE9       29.92F
LUKE AFB       PTSUNNY   73  50  44 S7        29.89F
DEER VALLEY    PTSUNNY   68  48  49 S9        29.92F
SCOTTSDALE     PTSUNNY   69  46  43 CALM      29.93F
MESA-FALCON    PTSUNNY   48  72 100 SW6       29.93F
MESA-GATEWAY   PTSUNNY   72  46  40 SW7       29.94F
CHANDLER       PTSUNNY   72  48  43 VRB6      29.92F
$$

AZZ027-028-242100-
SOUTHWEST MARICOPA COUNTY AND PINAL COUNTY

CITY           SKY/WX    TMP DP  RH WIND       PRES   REMARKS
CASA GRANDE    MOSUNNY   70  46  43 NE3       29.91F
GILA BEND      MOSUNNY   78  45  30 W12G20    29.89F
$$

AZZ503-504-507>509-242100-
SOUTHEAST ARIZONA

CITY           SKY/WX    TMP DP  RH WIND       PRES   REMARKS
TUCSON         PTSUNNY   71  38  29 W5        29.97F
DAVIS-MONTHAN  MOSUNNY   71  39  31 W7G17     29.95F
RYAN FIELD       N/A     73  37  27 SW15      29.96F
NOGALES        MOSUNNY   68  34  28 SW18      30.00F
SIERRA VISTA   MOSUNNY   67  29  23 SW9G30    30.01F
DOUGLAS        MOSUNNY   69  33  26 SW15G22   30.00F
SAFFORD        PTSUNNY   69  38  32 NW16G25   29.94S
$$

AZZ020-021-025-026-031-242100-
SOUTHWEST ARIZONA

CITY           SKY/WX    TMP DP  RH WIND       PRES   REMARKS
YUMA           MOSUNNY   78  43  28 SW8       29.89F
$$

CAZ031-033-041-043-047-048-061-242100-
SOUTHERN CALIFORNIA

CITY           SKY/WX    TMP DP  RH WIND       PRES   REMARKS
DOWNTOWN L.A.  CLOUDY    65  53  65 VRB3      29.99F
L.A. AIRPORT   PTSUNNY   62  53  72 W5        30.01F
SAN DIEGO      PTSUNNY   63  51  65 SW9       30.05S
BURBANK        CLOUDY    63  50  63 S6        29.99F
ONTARIO        PTSUNNY   63  50  62 SW10      30.00S
RIVERSIDE      CLOUDY    61  50  67 W9        30.01R
PALM SPRINGS   MOSUNNY   78  45  30 NW15G24   29.87F
EL CENTRO NAS  MOSUNNY   80  43  26 W20G26    29.90F
IMPERIAL       SUNNY     77  46  33 W13G23    29.87F
BLYTHE         MOSUNNY   80  45  28 S20G28    29.86F
NEEDLES        PTSUNNY   80  41  24 S12G25    29.81F
$$

NVZ020-UTZ003-242100-
SOUTHERN NEVADA-UTAH

CITY           SKY/WX    TMP DP  RH WIND       PRES   REMARKS
LAS VEGAS      MOSUNNY   75  39  27 SW20G33   29.72F
SALT LAKE CITY LGT RAIN  63  37  38 SE12G23   29.65F
$$

NMZ009-TXZ055-242100-
NEW MEXICO-WEST TEXAS

CITY           SKY/WX    TMP DP  RH WIND       PRES   REMARKS
ALBUQUERQUE    TSTM      48  37  65 N9        29.91F
EL PASO        MOSUNNY   72  28  19 SW20G32   29.91F
$$


........................KEY........................
SKY/WX - SKY CONDITION/WEATHER
TMP    - TEMPERATURE IN FAHRENHEIT
DP     - DEW POINT IN FAHRENHEIT
RH     - RELATIVE HUMIDITY IN PERCENT
WIND   - DIRECTION AND SPEED IN MILES PER HOUR (MPH)
VRB    - VARIABLE WIND DIRECTION
PRES   - MEAN SEA LEVEL PRESSURE IN INCHES OF MERCURY
         F - FALLING PRESSURE   R - RISING PRESSURE
         S - STEADY PRESSURE
VSB    - VISIBILITY IN MILES
HX     - HEAT INDEX IN FAHRENHEIT
WCI    - WIND CHILL INDEX IN FAHRENHEIT
TC     - TEMPERATURE IN CELSIUS WHICH IS ALSO KNOWN AS
         TEMPERATURE IN CENTIGRADE
AFB    - AIR FORCE BASE
         LUKE AFB IS LUKE AIR FORCE BASE
         DAVIS-MONTHAN IS DAVIS-MONTHAN AIR FORCE BASE
NAS    - NAVAL AIR STATION
         EL CENTRO NAS IS EL CENTRO NAVAL AIR STATION
N/A    - NOT AVAILABLE




USA.gov is the U.S. government's official web portal to all federal, state and local government web resources and services.